KAL787 RKSI-RJFF

Flight info

Callsign KAL787
Flight time 0h 53m
Altitude 37000
Route OSPOT2A OSPOT Y782 TGU Y781 BESNA Y209 SARUP
Aircraft B77W/H-SDE1E2E3FGHIJ2J3J4J5M1RWXY/LB1D1

Departure

Time 2026-05-07 15:11
Airport Incheon International Airport (RKSI)

Arrival

Time 2026-05-07 16:05
Airport Fukuoka Airport (RJFF)
Time Latitude Longitude Altitude Speed Heading
2026-05-07 14:53 37.46724 126.44201 38 ft 0 kts 235°
2026-05-07 14:59 37.46724 126.44202 38 ft 0 kts 235°
2026-05-07 15:01 37.46728 126.44209 38 ft 2 kts 234°
2026-05-07 15:02 37.46737 126.44226 37 ft 2 kts 240°
2026-05-07 15:02 37.46745 126.44244 36 ft 2 kts 245°
2026-05-07 15:02 37.46751 126.44261 38 ft 2 kts 229°
2026-05-07 15:02 37.46765 126.44271 36 ft 2 kts 179°
2026-05-07 15:03 37.46781 126.44268 37 ft 2 kts 159°
2026-05-07 15:03 37.46795 126.44260 36 ft 1 kts 147°
2026-05-07 15:03 37.46798 126.44257 35 ft 0 kts 145°
2026-05-07 15:03 37.46793 126.44261 36 ft 2 kts 146°
2026-05-07 15:04 37.46780 126.44273 36 ft 3 kts 144°
2026-05-07 15:04 37.46723 126.44326 37 ft 17 kts 145°
2026-05-07 15:04 37.46628 126.44411 37 ft 17 kts 144°
2026-05-07 15:04 37.46550 126.44494 37 ft 15 kts 119°
2026-05-07 15:05 37.46575 126.44576 37 ft 12 kts 59°
2026-05-07 15:05 37.46550 126.44664 37 ft 12 kts 146°
2026-05-07 15:05 37.46476 126.44726 37 ft 13 kts 145°
2026-05-07 15:05 37.46400 126.44800 37 ft 14 kts 142°
2026-05-07 15:06 37.46317 126.44873 37 ft 15 kts 144°
2026-05-07 15:06 37.46234 126.44947 37 ft 15 kts 144°
2026-05-07 15:06 37.46151 126.45021 37 ft 15 kts 144°
2026-05-07 15:06 37.46068 126.45095 37 ft 15 kts 144°
2026-05-07 15:07 37.45985 126.45168 37 ft 15 kts 144°
2026-05-07 15:07 37.45902 126.45242 37 ft 15 kts 144°
2026-05-07 15:07 37.45819 126.45316 37 ft 15 kts 144°
2026-05-07 15:07 37.45736 126.45389 37 ft 15 kts 144°
2026-05-07 15:08 37.45653 126.45463 37 ft 15 kts 144°
2026-05-07 15:08 37.45569 126.45537 37 ft 15 kts 144°
2026-05-07 15:08 37.45483 126.45615 37 ft 15 kts 144°
2026-05-07 15:08 37.45397 126.45691 37 ft 15 kts 145°
2026-05-07 15:09 37.45312 126.45767 37 ft 15 kts 140°
2026-05-07 15:09 37.45305 126.45854 37 ft 10 kts 64°
2026-05-07 15:09 37.45346 126.45930 37 ft 11 kts 55°
2026-05-07 15:09 37.45393 126.46014 37 ft 12 kts 54°
2026-05-07 15:10 37.45451 126.46060 37 ft 9 kts 343°
2026-05-07 15:10 37.45461 126.46052 37 ft 1 kts 328°
2026-05-07 15:10 37.45470 126.46045 37 ft 2 kts 328°
2026-05-07 15:10 37.45499 126.46020 37 ft 16 kts 323°
2026-05-07 15:11 37.45784 126.45763 37 ft 96 kts 324°
2026-05-07 15:11 37.46565 126.45053 55 ft 170 kts 327°
2026-05-07 15:11 37.47584 126.44175 674 ft 185 kts 325°
2026-05-07 15:11 37.48599 126.43341 2107 ft 156 kts 327°
2026-05-07 15:12 37.49499 126.42600 3062 ft 163 kts 328°
2026-05-07 15:12 37.50526 126.41757 3416 ft 195 kts 328°
2026-05-07 15:12 37.51719 126.40775 4079 ft 211 kts 327°
2026-05-07 15:12 37.52990 126.39727 4960 ft 220 kts 327°
2026-05-07 15:13 37.54288 126.38658 5455 ft 225 kts 326°
2026-05-07 15:13 37.55615 126.37569 5493 ft 229 kts 328°
2026-05-07 15:13 37.57074 126.36805 5508 ft 228 kts 341°
2026-05-07 15:13 37.58585 126.36287 5505 ft 228 kts 343°
2026-05-07 15:14 37.60114 126.35774 5499 ft 227 kts 342°
2026-05-07 15:14 37.60626 126.35599 5501 ft 226 kts 342°
2026-05-07 15:14 37.63180 126.35628 5507 ft 233 kts 20°
2026-05-07 15:14 37.64632 126.36941 5522 ft 260 kts 43°
2026-05-07 15:15 37.65460 126.38690 5507 ft 274 kts 65°
2026-05-07 15:15 37.66048 126.40997 5513 ft 278 kts 67°
2026-05-07 15:15 37.66646 126.43316 5513 ft 277 kts 71°
2026-05-07 15:15 37.66708 126.45756 5541 ft 285 kts 100°
2026-05-07 15:16 37.66058 126.48126 6229 ft 289 kts 109°
2026-05-07 15:16 37.65586 126.49719 6837 ft 295 kts 109°
2026-05-07 15:16 37.64873 126.52177 7795 ft 301 kts 110°
2026-05-07 15:16 37.64059 126.54618 8665 ft 306 kts 123°
2026-05-07 15:17 37.62627 126.56594 9448 ft 308 kts 141°
2026-05-07 15:17 37.61005 126.58409 10337 ft 315 kts 142°
2026-05-07 15:17 37.59305 126.60301 10848 ft 340 kts 142°
2026-05-07 15:17 37.57445 126.62375 11110 ft 373 kts 142°
2026-05-07 15:18 37.55476 126.64593 11934 ft 386 kts 142°
2026-05-07 15:18 37.53462 126.66885 13104 ft 393 kts 142°
2026-05-07 15:18 37.51421 126.69216 14281 ft 399 kts 143°
2026-05-07 15:18 37.49355 126.71575 15380 ft 404 kts 144°
2026-05-07 15:19 37.47252 126.73974 16453 ft 411 kts 144°
2026-05-07 15:19 37.45119 126.76406 17530 ft 416 kts 146°
2026-05-07 15:19 37.42962 126.78860 18601 ft 422 kts 147°
2026-05-07 15:19 37.40755 126.81338 19504 ft 426 kts 150°
2026-05-07 15:20 37.37632 126.84358 20636 ft 431 kts 155°
2026-05-07 15:20 37.35983 126.85855 21236 ft 435 kts 155°
2026-05-07 15:20 37.33518 126.88120 22117 ft 442 kts 155°
2026-05-07 15:20 37.31028 126.90450 22882 ft 451 kts 155°
2026-05-07 15:21 37.28494 126.92837 23577 ft 461 kts 155°
2026-05-07 15:21 37.25916 126.95272 24218 ft 467 kts 155°
2026-05-07 15:21 37.23308 126.97745 24846 ft 471 kts 155°
2026-05-07 15:21 37.20686 127.00233 24936 ft 473 kts 155°
2026-05-07 15:22 37.18066 127.02720 24953 ft 472 kts 155°
2026-05-07 15:22 37.15443 127.05205 24959 ft 472 kts 155°
2026-05-07 15:22 37.12825 127.07678 24966 ft 472 kts 155°
2026-05-07 15:22 37.10204 127.10149 24969 ft 472 kts 155°
2026-05-07 15:23 37.07582 127.12616 24957 ft 472 kts 155°
2026-05-07 15:23 37.04993 127.15049 24965 ft 471 kts 155°
2026-05-07 15:23 37.02371 127.17511 24904 ft 471 kts 155°
2026-05-07 15:23 36.99744 127.19976 24934 ft 471 kts 154°
2026-05-07 15:24 36.97128 127.22429 24936 ft 472 kts 154°
2026-05-07 15:24 36.94456 127.24933 24919 ft 473 kts 154°
2026-05-07 15:24 36.91863 127.27361 24928 ft 473 kts 154°
2026-05-07 15:24 36.89226 127.29829 24939 ft 473 kts 154°
2026-05-07 15:25 36.86597 127.32286 24953 ft 473 kts 154°
2026-05-07 15:25 36.83961 127.34752 24958 ft 474 kts 153°
2026-05-07 15:25 36.81425 127.37449 24963 ft 483 kts 147°
2026-05-07 15:25 36.79043 127.40424 24982 ft 487 kts 144°
2026-05-07 15:26 36.76700 127.43494 24962 ft 488 kts 144°
2026-05-07 15:26 36.74329 127.46522 25109 ft 490 kts 145°
2026-05-07 15:26 36.71899 127.49514 25798 ft 491 kts 145°
2026-05-07 15:26 36.69463 127.52480 26632 ft 491 kts 146°
2026-05-07 15:27 36.67008 127.55442 27377 ft 491 kts 148°
2026-05-07 15:27 36.64395 127.58166 27981 ft 487 kts 155°
2026-05-07 15:27 36.61619 127.60558 28573 ft 488 kts 157°
2026-05-07 15:27 36.58784 127.62933 29189 ft 493 kts 157°
2026-05-07 15:28 36.55931 127.65319 29840 ft 496 kts 157°
2026-05-07 15:28 36.53054 127.67736 30384 ft 500 kts 157°
2026-05-07 15:28 36.50173 127.70173 30874 ft 503 kts 156°
2026-05-07 15:28 36.47282 127.72632 31394 ft 504 kts 156°
2026-05-07 15:29 36.44399 127.75097 32081 ft 500 kts 156°
2026-05-07 15:29 36.41545 127.77541 32756 ft 497 kts 156°
2026-05-07 15:29 36.38712 127.79964 33451 ft 494 kts 156°
2026-05-07 15:29 36.35884 127.82376 34081 ft 491 kts 156°
2026-05-07 15:30 36.33067 127.84773 34577 ft 491 kts 156°
2026-05-07 15:30 36.30251 127.87162 35044 ft 491 kts 156°
2026-05-07 15:30 36.27430 127.89552 35485 ft 491 kts 156°
2026-05-07 15:30 36.24653 127.91906 35986 ft 490 kts 156°
2026-05-07 15:31 36.21836 127.94290 36417 ft 490 kts 156°
2026-05-07 15:31 36.19023 127.96669 36829 ft 490 kts 156°
2026-05-07 15:31 36.16198 127.99053 36947 ft 496 kts 156°
2026-05-07 15:31 36.13432 128.01385 36927 ft 496 kts 156°
2026-05-07 15:32 36.07785 128.06161 36914 ft 488 kts 156°
2026-05-07 15:32 36.02178 128.10887 36929 ft 488 kts 156°
2026-05-07 15:33 35.96570 128.15597 36937 ft 489 kts 156°
2026-05-07 15:33 35.90941 128.20319 36890 ft 489 kts 155°
2026-05-07 15:34 35.85499 128.24881 36904 ft 488 kts 155°
2026-05-07 15:34 35.79903 128.29562 36913 ft 485 kts 155°
2026-05-07 15:35 35.74805 128.33821 36913 ft 486 kts 155°
2026-05-07 15:35 35.69208 128.38487 36905 ft 487 kts 155°
2026-05-07 15:36 35.63593 128.43160 36909 ft 487 kts 155°
2026-05-07 15:36 35.57984 128.47821 36900 ft 487 kts 155°
2026-05-07 15:37 35.52382 128.52473 36708 ft 480 kts 155°
2026-05-07 15:37 35.49649 128.54741 36278 ft 473 kts 155°
2026-05-07 15:37 35.46851 128.56853 35518 ft 469 kts 161°
2026-05-07 15:38 35.43966 128.58618 34747 ft 455 kts 163°
2026-05-07 15:38 35.41145 128.60273 33603 ft 446 kts 164°
2026-05-07 15:38 35.38310 128.61909 32524 ft 454 kts 164°
2026-05-07 15:38 35.35452 128.63563 31902 ft 454 kts 164°
2026-05-07 15:39 35.33172 128.64899 31562 ft 449 kts 164°
2026-05-07 15:39 35.30374 128.66551 31126 ft 444 kts 164°
2026-05-07 15:39 35.27615 128.68185 30701 ft 438 kts 163°
2026-05-07 15:39 35.24890 128.69799 30287 ft 433 kts 163°
2026-05-07 15:40 35.22178 128.71400 29777 ft 431 kts 163°
2026-05-07 15:40 35.19478 128.72990 29219 ft 430 kts 163°
2026-05-07 15:40 35.16799 128.74569 28708 ft 427 kts 164°
2026-05-07 15:40 35.14132 128.76140 28246 ft 423 kts 164°
2026-05-07 15:41 35.11487 128.77696 27735 ft 420 kts 164°
2026-05-07 15:41 35.08866 128.79235 27263 ft 417 kts 164°
2026-05-07 15:41 35.06263 128.80762 26799 ft 414 kts 164°
2026-05-07 15:41 35.03680 128.82277 26302 ft 411 kts 164°
2026-05-07 15:42 35.01115 128.83796 25868 ft 410 kts 162°
2026-05-07 15:42 34.98734 128.85456 25440 ft 412 kts 158°
2026-05-07 15:42 34.96303 128.87297 25057 ft 410 kts 157°
2026-05-07 15:42 34.93880 128.89156 24919 ft 414 kts 157°
2026-05-07 15:43 34.91449 128.91022 24898 ft 412 kts 157°
2026-05-07 15:43 34.89028 128.92873 24897 ft 410 kts 157°
2026-05-07 15:43 34.86611 128.94711 24898 ft 410 kts 157°
2026-05-07 15:43 34.84188 128.96545 24901 ft 410 kts 157°
2026-05-07 15:44 34.81763 128.98376 24904 ft 410 kts 158°
2026-05-07 15:44 34.79505 129.00078 24903 ft 411 kts 158°
2026-05-07 15:44 34.77108 129.01885 24902 ft 411 kts 158°
2026-05-07 15:44 34.74680 129.03713 24883 ft 411 kts 157°
2026-05-07 15:45 34.72311 129.05497 24893 ft 411 kts 157°
2026-05-07 15:45 34.69880 129.07327 24899 ft 411 kts 157°
2026-05-07 15:45 34.67446 129.09158 24905 ft 411 kts 157°
2026-05-07 15:45 34.65018 129.10983 24898 ft 411 kts 157°
2026-05-07 15:46 34.60227 129.14623 24543 ft 409 kts 153°
2026-05-07 15:46 34.57984 129.16791 24221 ft 416 kts 146°
2026-05-07 15:46 34.55908 129.19271 23903 ft 421 kts 140°
2026-05-07 15:47 34.54016 129.21999 23607 ft 423 kts 137°
2026-05-07 15:47 34.52169 129.24766 23076 ft 409 kts 136°
2026-05-07 15:47 34.50428 129.27394 22129 ft 403 kts 136°
2026-05-07 15:47 34.48675 129.30031 21123 ft 400 kts 136°
2026-05-07 15:48 34.46930 129.32639 20134 ft 397 kts 136°
2026-05-07 15:48 34.45199 129.35216 19308 ft 390 kts 136°
2026-05-07 15:48 34.43537 129.37693 18919 ft 367 kts 136°
2026-05-07 15:48 34.41969 129.40031 18503 ft 349 kts 136°
2026-05-07 15:49 34.40468 129.42259 18108 ft 336 kts 137°
2026-05-07 15:49 34.38958 129.44475 17725 ft 348 kts 137°
2026-05-07 15:49 34.37369 129.46787 17331 ft 369 kts 137°
2026-05-07 15:49 34.35691 129.49232 16891 ft 381 kts 136°
2026-05-07 15:50 34.34005 129.51709 16433 ft 382 kts 136°
2026-05-07 15:50 34.32326 129.54189 15972 ft 380 kts 136°
2026-05-07 15:50 34.30658 129.56653 15555 ft 377 kts 136°
2026-05-07 15:50 34.29003 129.59096 15130 ft 375 kts 136°
2026-05-07 15:51 34.27354 129.61524 14687 ft 372 kts 136°
2026-05-07 15:51 34.25716 129.63932 14272 ft 370 kts 135°
2026-05-07 15:51 34.24083 129.66330 13860 ft 368 kts 135°
2026-05-07 15:51 34.22460 129.68709 13395 ft 366 kts 135°
2026-05-07 15:52 34.20847 129.71074 12942 ft 364 kts 135°
2026-05-07 15:52 34.19241 129.73425 12510 ft 361 kts 135°
2026-05-07 15:52 34.17648 129.75758 12106 ft 358 kts 135°
2026-05-07 15:52 34.16074 129.78061 11736 ft 354 kts 135°
2026-05-07 15:53 34.14513 129.80343 11334 ft 352 kts 134°
2026-05-07 15:53 34.12981 129.82580 10937 ft 350 kts 134°
2026-05-07 15:53 34.11440 129.84829 10533 ft 348 kts 134°
2026-05-07 15:53 34.09912 129.87059 10365 ft 338 kts 134°
2026-05-07 15:54 34.08437 129.89214 10199 ft 329 kts 134°
2026-05-07 15:54 34.06997 129.91316 10056 ft 320 kts 134°
2026-05-07 15:54 34.05592 129.93362 9830 ft 314 kts 134°
2026-05-07 15:54 34.04197 129.95390 9482 ft 313 kts 134°
2026-05-07 15:55 34.02817 129.97397 9151 ft 311 kts 134°
2026-05-07 15:55 34.01444 129.99391 8839 ft 308 kts 134°
2026-05-07 15:55 34.00149 130.01274 8444 ft 294 kts 134°
2026-05-07 15:55 33.98892 130.03107 8112 ft 275 kts 134°
2026-05-07 15:56 33.97715 130.04822 7821 ft 258 kts 135°
2026-05-07 15:56 33.96550 130.06506 7588 ft 272 kts 135°
2026-05-07 15:56 33.95277 130.08334 7315 ft 294 kts 134°
2026-05-07 15:56 33.93950 130.10249 7044 ft 297 kts 134°
2026-05-07 15:57 33.92633 130.12160 6727 ft 296 kts 134°
2026-05-07 15:57 33.91331 130.14050 6533 ft 288 kts 134°
2026-05-07 15:57 33.90093 130.15852 6060 ft 273 kts 134°
2026-05-07 15:57 33.88920 130.17555 5690 ft 256 kts 134°
2026-05-07 15:58 33.87820 130.19149 5381 ft 240 kts 135°
2026-05-07 15:58 33.86724 130.20725 5181 ft 257 kts 135°
2026-05-07 15:58 33.85541 130.22423 4901 ft 267 kts 134°
2026-05-07 15:58 33.84351 130.24143 4577 ft 267 kts 134°
2026-05-07 15:59 33.83170 130.25850 4259 ft 265 kts 134°
2026-05-07 15:59 33.81996 130.27544 3954 ft 262 kts 134°
2026-05-07 15:59 33.80837 130.29215 3693 ft 259 kts 134°
2026-05-07 15:59 33.79655 130.30755 3581 ft 238 kts 147°
2026-05-07 16:00 33.78307 130.31778 3481 ft 223 kts 156°
2026-05-07 16:00 33.76977 130.32651 3358 ft 213 kts 156°
2026-05-07 16:00 33.75713 130.33484 3250 ft 202 kts 157°
2026-05-07 16:00 33.74529 130.34257 3181 ft 191 kts 157°
2026-05-07 16:01 33.73367 130.35011 2995 ft 183 kts 160°
2026-05-07 16:01 33.72255 130.35654 2820 ft 177 kts 158°
2026-05-07 16:01 33.71188 130.36349 2610 ft 173 kts 155°
2026-05-07 16:01 33.70143 130.37066 2430 ft 173 kts 155°
2026-05-07 16:02 33.69094 130.37792 2201 ft 174 kts 154°
2026-05-07 16:02 33.68050 130.38517 1962 ft 173 kts 154°
2026-05-07 16:02 33.67014 130.39236 1747 ft 169 kts 154°
2026-05-07 16:02 33.66034 130.39917 1509 ft 155 kts 154°
2026-05-07 16:03 33.65157 130.40525 1321 ft 140 kts 153°
2026-05-07 16:03 33.64314 130.41106 1128 ft 140 kts 153°
2026-05-07 16:03 33.63466 130.41694 960 ft 141 kts 152°
2026-05-07 16:03 33.62624 130.42278 763 ft 139 kts 151°
2026-05-07 16:04 33.61799 130.42849 591 ft 136 kts 150°
2026-05-07 16:04 33.60979 130.43417 404 ft 136 kts 150°
2026-05-07 16:04 33.60162 130.44007 188 ft 135 kts 151°
2026-05-07 16:04 33.59357 130.44551 33 ft 128 kts 150°
2026-05-07 16:05 33.58677 130.45007 37 ft 89 kts 151°
2026-05-07 16:05 33.58300 130.45267 40 ft 34 kts 150°
2026-05-07 16:05 33.58170 130.45351 39 ft 21 kts 163°
2026-05-07 16:05 33.58030 130.45399 43 ft 21 kts 167°
2026-05-07 16:06 33.57887 130.45406 42 ft 21 kts 198°
2026-05-07 16:06 33.57801 130.45275 42 ft 21 kts 259°
2026-05-07 16:06 33.57844 130.45180 41 ft 12 kts 328°
2026-05-07 16:06 33.57916 130.45131 41 ft 12 kts 331°
2026-05-07 16:07 33.58009 130.45069 41 ft 16 kts 331°
2026-05-07 16:07 33.58107 130.45003 40 ft 16 kts 330°
2026-05-07 16:07 33.58173 130.44959 40 ft 16 kts 330°
2026-05-07 16:07 33.58303 130.44869 39 ft 16 kts 329°
2026-05-07 16:08 33.58368 130.44825 38 ft 16 kts 330°
2026-05-07 16:08 33.58411 130.44719 38 ft 11 kts 246°
2026-05-07 16:08 33.58377 130.44647 36 ft 1 kts 240°